This is the latest recevied weather packets stored in our database for station/object VE3VGJ. If no packets are shown the sender has not sent any weather packets the latest 10 day(s).
| Time | Temp. | Humidity | Pressure | Rain* | Wind** | Luminosity | Snow |
|---|---|---|---|---|---|---|---|
| 1777594903 | 8.89° C | 50% | 1012.3 hPa | 0 mm | - | 2 W/m² | - |
| 1777594600 | 8.89° C | 49% | 1012 hPa | 0 mm | - | 3 W/m² | - |
| 1777594297 | 8.89° C | 49% | 1012 hPa | 0 mm | - | 5 W/m² | - |
| 1777593993 | 8.89° C | 49% | 1012 hPa | 0 mm | - | 8 W/m² | - |
| 1777593689 | 8.89° C | 49% | 1012 hPa | 0 mm | - | 11 W/m² | - |
| 1777593386 | 8.89° C | 48% | 1011.9 hPa | 0 mm | - | 14 W/m² | - |
| 1777593084 | 9.44° C | 47% | 1012 hPa | 0 mm | - | 18 W/m² | - |
| 1777592783 | 9.44° C | 47% | 1011.9 hPa | 0 mm | - | 22 W/m² | - |
| 1777592480 | 9.44° C | 47% | 1011.8 hPa | 0 mm | - | 26 W/m² | - |
| 1777592175 | 10° C | 46% | 1011.9 hPa | 0 mm | - | 28 W/m² | - |
| 1777591872 | 10° C | 45% | 1011.9 hPa | 0 mm | - | 31 W/m² | - |
| 1777591568 | 10.56° C | 44% | 1012 hPa | 0 mm | - | 35 W/m² | - |
| 1777591264 | 10.56° C | 42% | 1011.8 hPa | 0 mm | - | 44 W/m² | - |
| 1777590960 | 11.11° C | 43% | 1012 hPa | 0 mm | - | 60 W/m² | - |
| 1777590656 | 11.11° C | 42% | 1011.8 hPa | 0 mm | - | 83 W/m² | - |
| 1777590352 | 11.11° C | 42% | 1011.6 hPa | 0 mm | - | 86 W/m² | - |
| 1777590050 | 11.11° C | 42% | 1011.6 hPa | 0 mm | - | 109 W/m² | - |
| 1777589746 | 11.11° C | 42% | 1011.5 hPa | 0 mm | - | 124 W/m² | - |
| 1777589444 | 11.11° C | 42% | 1011.8 hPa | 0 mm | - | 133 W/m² | - |
| 1777589140 | 11.11° C | 41% | 1011.6 hPa | 0 mm | - | 154 W/m² | - |
| 1777588836 | 11.11° C | 42% | 1011.6 hPa | 0 mm | - | 158 W/m² | - |
| 1777588532 | 11.11° C | 42% | 1011.5 hPa | 0 mm | - | 164 W/m² | - |
| 1777588228 | 11.11° C | 41% | 1011.4 hPa | 0 mm | - | 163 W/m² | - |
| 1777587923 | 11.67° C | 42% | 1011.4 hPa | 0 mm | - | 197 W/m² | - |
| 1777587620 | 11.11° C | 43% | 1011.3 hPa | 0 mm | - | 199 W/m² | - |
* Rain latest hour (hover to see other rain measurements)
** Current wind speed in m/s (hover to see current wind gust speed)